Regional Weather Roundup
Issued by NWS

Home | Current Version | Previous Version | Text Only | Print | Product List | Glossary Off
Versions: 1 2 3 4 5 6 7 8 9 10 11 12 13 14 15 16 17 18 19 20 21 22 23 24 25 26 27 28 29 30 31 32 33 34 35 36 37 38 39 40 41 42 43 44 45 46 47 48 49 50

579
ASUS45 KPSR 222210
RWRAZ

ARIZONA HOURLY REGIONAL WEATHER ROUNDUP
NATIONAL WEATHER SERVICE PHOENIX AZ
300 PM MST TUE AUG 22 2017

NOTE: FAIR INDICATES FEW OR NO CLOUDS BELOW 12,000 FEET WITH NO
SIGNIFICANT WEATHER AND/OR OBSTRUCTIONS TO VISIBILITY.

AZZ001>003-036-222300-
NORTHWEST ARIZONA

CITY           SKY/WX    TMP DP  RH WIND       PRES   REMARKS
BULLHEAD CITY  SUNNY    108  46  12 S9        29.86F HX 103
KINGMAN        PTSUNNY   95  46  18 N8        30.09F
$$

AZZ004>008-015-016-018-222300-
NORTH CENTRAL ARIZONA

CITY           SKY/WX    TMP DP  RH WIND       PRES   REMARKS
GRAND CANYON   MOSUNNY   80  44  27 S8        30.34F
WILLIAMS       PTSUNNY   79  43  27 VRB5      30.35F
PRESCOTT       MOSUNNY   86  42  21 CALM      30.21F
FLAGSTAFF      MOSUNNY   76  40  27 SW8       30.37F
PAYSON           N/A     86  43  22 CALM      30.22F
PAGE           SUNNY     91  47  21 VRB7      30.15F
$$

AZZ009>014-017-222300-
NORTHEAST ARIZONA

CITY           SKY/WX    TMP DP  RH WIND       PRES   REMARKS
WINSLOW        MOSUNNY   93  42  17 NW13G20   30.18F
SAINT JOHNS    MOSUNNY   86  41  20 E7        30.23F
WINDOW ROCK    PTSUNNY   81  47  30 VRB3      30.32F
SHOW LOW       SUNNY     84  45  24 W9G15     30.30F
$$

AZZ540-542>544-546-548-222300-
GREATER PHOENIX AREA

CITY           SKY/WX    TMP DP  RH WIND       PRES   REMARKS
PHOENIX        MOSUNNY  106  47  13 NW9       29.86F HX 102
BUCKEYE          N/A    104  86  57 S7        29.88F HX 140
GLENDALE       MOSUNNY  108  46  12 W6        29.89F HX 103
LUKE AFB       SUNNY    104  49  15 CALM      29.86F HX 101
DEER VALLEY    SUNNY    103  47  15 SE7       29.89F
SCOTTSDALE     SUNNY    105  47  14 VRB5      29.91F HX 101
MESA-FALCON    MOSUNNY  104  54  18 SW7       29.90F HX 102
MESA-GATEWAY   MOSUNNY  102  52  18 W9        29.90F HX 100
CHANDLER       MOSUNNY  104  48  15 VRB5      29.88F HX 100
$$

AZZ539-553-222300-
SOUTHWEST MARICOPA COUNTY AND PINAL COUNTY

CITY           SKY/WX    TMP DP  RH WIND       PRES   REMARKS
CASA GRANDE    SUNNY    102  53  19 VRB3      29.91F HX 100
GILA BEND      MOSUNNY  107  49  14 N12       29.84F HX 103
$$

AZZ503-504-507>509-222300-
SOUTHEAST ARIZONA

CITY           SKY/WX    TMP DP  RH WIND       PRES   REMARKS
TUCSON         NOT AVBL
DAVIS-MONTHAN  SUNNY    104  52  17 CALM      29.98F HX 102
RYAN FIELD     SUNNY    100  52  19 MISG      29.97
NOGALES        MOSUNNY   92  57  30 S6        30.10F
SIERRA VISTA   CLOUDY    92  55  28 S10G17    30.17F
DOUGLAS        SUNNY     93  51  23 MISG      30.11F
SAFFORD        SUNNY     99  49  18 NW3       30.01F
$$

AZZ532-222300-
SOUTHWEST ARIZONA

CITY           SKY/WX    TMP DP  RH WIND       PRES   REMARKS
YUMA           MOSUNNY  107  52  16 S7        29.83F HX 105
$$

CAZ041-043-047-048-061-525>527-560>570-222300-
SOUTHERN CALIFORNIA

CITY           SKY/WX    TMP DP  RH WIND       PRES   REMARKS
DOWNTOWN L.A.  SUNNY     78  63  59 W6        29.96F
L.A. AIRPORT   MOSUNNY   74  64  71 W16       29.97F
SAN DIEGO      MOSUNNY   76  63  64 NW14G23   29.99S
BURBANK        SUNNY     86  60  41 S9        29.95F
ONTARIO        MOSUNNY   93  57  29 W14       29.94F
RIVERSIDE      SUNNY     94  60  32 W17       29.93F
PALM SPRINGS   SUNNY    108  47  13 E13       29.86F HX 104
EL CENTRO NAS  MOSUNNY  106  49  14 SE7       29.82F HX 103
IMPERIAL       MOSUNNY  107  57  19 SE10      29.80F HX 107
BLYTHE         SUNNY    106  53  17 S7        29.85F HX 104
NEEDLES        SUNNY    106  45  12 VRB3      29.88F HX 101
$$

NVZ020-UTZ003-222300-
SOUTHERN NEVADA-UTAH

CITY           SKY/WX    TMP DP  RH WIND       PRES   REMARKS
LAS VEGAS      MOSUNNY  100  44  14 NW9       29.99F
SALT LAKE CITY PTSUNNY   89  44  20 N9        30.13F
$$

NMZ009-TXZ055-222300-
NEW MEXICO-WEST TEXAS

CITY           SKY/WX    TMP DP  RH WIND       PRES   REMARKS
ALBUQUERQUE    CLOUDY    83  52  34 VRB5      30.23F
EL PASO        MOSUNNY   92  59  33 E5        30.11F
$$


........................KEY........................
SKY/WX - SKY CONDITION/WEATHER
TMP    - TEMPERATURE IN FAHRENHEIT
DP     - DEW POINT IN FAHRENHEIT
RH     - RELATIVE HUMIDITY IN PERCENT
WIND   - DIRECTION AND SPEED IN MILES PER HOUR (MPH)
VRB    - VARIABLE WIND DIRECTION
PRES   - MEAN SEA LEVEL PRESSURE IN INCHES OF MERCURY
         F - FALLING PRESSURE   R - RISING PRESSURE
         S - STEADY PRESSURE
VSB    - VISIBILITY IN MILES
HX     - HEAT INDEX IN FAHRENHEIT
WCI    - WIND CHILL INDEX IN FAHRENHEIT
TC     - TEMPERATURE IN CELSIUS WHICH IS ALSO KNOWN AS
         TEMPERATURE IN CENTIGRADE
AFB    - AIR FORCE BASE
         LUKE AFB IS LUKE AIR FORCE BASE
         DAVIS-MONTHAN IS DAVIS-MONTHAN AIR FORCE BASE
NAS    - NAVAL AIR STATION
         EL CENTRO NAS IS EL CENTRO NAVAL AIR STATION
N/A    - NOT AVAILABLE





USA.gov is the U.S. government's official web portal to all federal, state and local government web resources and services.